User: anonymous   Login
Location: Unspecified
(0.0000°N, 0.0000°E)
Time: 23:05:29
(UTC+00:00)
Language:

STARLINK-3360 - Orbit

View from above orbital plane
View from above orbital plane
View from above satellite
View from above satellite

Ground track
Ground track

The orbit is defined by the following mean orbital elements,

1 51149U          26145.49614523 +.00000000 +00000-0 +64341-5 0 00008
2 51149  53.2139 324.1390 0001324  87.6410 272.4734 15.08835541    02
Epoch (UTC): 25 May 2026 11:54:26
Eccentricity: 0.0001324
inclination: 53.2139°
perigee height: 539 km
apogee height: 541 km
right ascension of ascending node: 324.1390°
argument of perigee: 87.6410°
revolutions per day: 15.08835541
mean anomaly at epoch: 272.4734°

The dashed part of the orbit path shows where the satellite is in the earth's shadow,  

DLR